Location: Lafig�re
(44.4503°N, 4.0357°E)
Time: 05:40:09
(UTC+00:00)

Transit 2A Rocket - Pass Details

Date: 25 June 2021
Orbit: 590 x 913 km, 66.7° (Epoch: 26 July)

Event Time Altitude Azimuth Distance (km) Brightness Sun altitude
Exits shadow 23:05:50 39° 238° (WSW) 907 5.2 -21.5°
Maximum altitude 23:07:18 64° 305° (NW) 668 4.8 -21.6°
Drops below altitude 10° 23:11:44 10° 27° (NNE) 2,007 7.9 -21.7°
Sets 23:14:07 0° 30° (NNE) 2,958 8.8 -21.8°
